Location: Roanoke
(37.2710°N, 79.9420°W)
Time: 13:06:41
(UTC-05:00)

Daily predictions for brighter satellites

Satellite Brightness Start Highest point End
(mag) Time Altitude Azimuth Time Altitude Azimuth Time Altitude Azimuth
Hubble Space Telescope 2.5 18:37:15 10° SW 18:40:31 23° S 18:43:47 10° ESE
Cosmos 614 Rocket 4.3 18:36:54 10° SSW 18:41:57 71° WNW 18:47:01 10° NNE
Cosmos 2297 Rocket 3.5 18:39:21 10° SE 18:42:55 17° E 18:46:29 10° ENE
Cosmos 2237 Rocket 3.6 18:38:56 10° N 18:42:58 19° NE 18:46:58 10° E
OAO 3 Rocket 4.3 18:41:35 10° SW 18:46:01 33° SSE 18:50:25 10° E
Cosmos 1741 Rocket 4.1 18:41:15 10° SSW 18:46:28 83° WNW 18:51:43 10° NNE
Cosmos 405 Rocket 4.2 18:45:08 10° NNE 18:48:05 19° ENE 18:50:59 10° ESE
Cosmos 2333 4.4 18:43:21 10° NNW 18:48:59 55° ENE 18:54:38 10° SE
ALOS 3.0 18:45:28 10° SE 18:49:37 33° ENE 18:53:46 10° N
COSMO-SKYMED 1 3.6 18:46:25 10° N 18:50:38 50° WNW 18:54:49 10° SSW
H-2A R/B 4.2 18:49:34 10° ESE 18:52:09 18° ENE 18:54:46 10° NNE
Cosmos 2219 Rocket 2.7 18:47:21 10° N 18:52:32 37° ENE 18:57:41 10° SE
Cosmos 2237 4.2 18:46:48 10° NNW 18:52:34 87° ENE 18:58:16 10° SSE
COSMOS 2428 2.7 18:47:19 10° NNW 18:53:00 68° ENE 18:58:40 10° SSE
Cosmos 2360 Rocket 3.2 18:48:34 10° NNW 18:54:02 52° WSW 18:59:30 10° S
Meteor 1-19 Rocket 4.4 18:48:58 10° N 18:54:43 84° W 19:00:31 10° S
SJ-6B 2.9 18:54:36 10° SSE 18:58:28 55° ENE 19:02:16 10° N
Meteor 2-4 Rocket 3.6 18:55:13 10° N 19:00:42 78° E 19:06:03 10° SSE
USA 229 DEB 3.8 18:54:27 10° NNW 19:01:34 65° NE 19:08:46 10° SE
USA 229 3.9 18:54:33 10° NNW 19:01:40 64° NE 19:08:51 10° SE
Cosmos 2227 Rocket 2.7 18:58:22 10° S 19:03:28 36° ESE 19:08:36 10° NE
Cosmos 2219 3.7 18:58:40 10° SSW 19:04:22 65° WNW 19:10:05 10° NNE
BREEZE-M DEB (TANK) 4.1 19:05:26 10° NW 19:08:38 40° NE 19:15:07 15° ESE
Resurs 01 Rocket 2.1 19:04:49 10° SE 19:08:51 36° ENE 19:12:54 10° N
Cosmos 1570 Rocket 4.3 19:04:35 10° NNW 19:09:48 71° WSW 19:15:00 10° S
Cosmos 468 Rocket 4.4 19:04:57 10° N 19:09:55 41° ENE 19:14:53 10° SE
Meteor 1-23 Rocket 4.2 19:06:04 10° N 19:11:52 79° E 19:17:34 10° SSE
SL-08 ROCKET BODY 4.5 19:05:45 10° S 19:11:56 89° E 19:18:10 10° N
NOAA 12 4.4 19:07:13 10° S 19:12:32 74° WSW 19:17:53 10° NNW
Resurs 1-3 4.2 19:10:28 10° SE 19:14:27 35° ENE 19:18:26 10° N
Spot 2 Rocket 3.8 19:10:28 10° SE 19:15:14 44° ENE 19:20:03 10° N
Cosmos 2327 Rocket 4.5 19:09:12 10° S 19:15:25 78° E 19:21:47 10° N
Cosmos 1025 Rocket 3.0 19:11:43 10° N 19:16:08 82° E 19:20:31 10° S
Okean 1 Rocket 4.4 19:12:07 10° SSW 19:16:23 43° W 19:20:41 10° N
FREGAT/IRIS 3.2 19:16:49 10° S 19:19:51 61° W 19:22:55 10° NNW
SL-16 R/B 3.7 19:16:40 10° NNE 19:20:15 17° NE 19:21:06 16° ENE
Cosmos 1892 Rocket 3.8 19:17:47 10° N 19:22:00 46° E 19:26:13 10° SSE
GEOS 3 Rocket 4.0 19:20:19 10° NE 19:25:16 42° ESE 19:30:15 10° S
Atlas Centaur 2 3.7 19:19:56 10° SW 19:26:44 32° SSE 19:30:22 20° ESE
GPS 2-04 Rocket1 2.9 19:23:16 10° W 19:27:28 69° S 19:29:35 29° ESE
Meteor 2-13 Rocket 4.3 19:23:05 10° S 19:29:05 70° E 19:35:10 10° NNE
NOSS 3-1 (C) 4.3 19:23:35 10° NNW 19:30:57 49° NE 19:36:32 20° ESE
OTV 4 0.3 19:28:09 10° W 19:31:08 89° N 19:31:45 52° E
Envisat 4.3 19:32:27 21° ENE 19:32:27 21° ENE 19:35:48 10° NNE
FENGYUN 3A 3.6 19:26:47 10° SSE 19:32:12 87° ENE 19:37:40 10° NNW
Cosmos 1814 Rocket 4.1 19:28:19 10° N 19:33:18 49° ENE 19:36:39 20° SE
Okean 2 3.3 19:29:38 10° N 19:33:50 89° E 19:38:01 10° S
Cosmos 2074 Rocket 4.4 19:29:18 10° SSW 19:35:31 67° W 19:41:48 10° N
HJ-1C 3.8 19:35:01 10° S 19:38:20 64° W 19:41:42 10° NNW
Cosmos 1544 Rocket 3.4 19:37:39 10° S 19:41:58 85° E 19:46:19 10° N
Cosmos 1980 3.7 19:37:36 10° NNW 19:43:13 63° ENE 19:46:48 22° SE
NOSS 0 Rocket 3.8 19:38:07 10° NNW 19:44:17 81° ENE 19:50:08 11° SSE
Cosmos 2333 Rocket 2.1 19:40:54 10° NNW 19:46:42 84° ENE 19:51:57 13° SSE
Helios 1B rocket 2.4 19:43:42 10° NNE 19:47:47 55° E 19:51:51 10° S
USA 32 4.3 19:45:08 10° N 19:50:08 44° E 19:51:05 40° ESE
Cosmos 1354 Rocket 4.5 19:46:18 10° S 19:50:30 38° ESE 19:50:30 38° ESE
Helios 1A 2.9 19:52:56 56° E 19:53:16 59° ENE 19:57:22 10° N
Cosmos 1975 2.6 19:50:36 10° S 19:54:37 79° E 19:58:41 10° N
Cosmos 1500 3.0 19:53:03 10° S 19:56:49 81° E 20:00:37 10° N
Cosmos 1437 2.9 19:53:53 10° NNW 19:56:58 71° WNW 19:56:58 71° WNW
Nadezhda 3 Rocket 3.9 19:57:05 10° N 20:03:17 86° E 20:09:30 10° S
CZ-3 Stage 3 4.3 19:21:05 10° SW 20:03:23 43° S 20:07:53 30° SE
Cosmos 1486 Rocket 4.1 19:58:12 10° SSW 20:03:31 78° WNW 20:08:51 10° NNE
Cosmos 1515 3.7 20:01:28 10° N 20:05:20 78° W 20:05:38 72° SW
Cosmos 2082 3.9 20:01:34 10° SSW 20:07:17 72° WNW 20:13:00 10° NNE
Cosmos 841 Rocket 3.4 20:05:39 10° N 20:10:38 62° ENE 20:10:38 62° ENE
Spot 1 3.9 20:11:15 75° SSW 20:11:31 79° WSW 20:15:42 10° NNW
ATLAS CENTAUR R/B 3.3 20:10:29 10° WSW 20:13:24 24° WNW 20:13:24 24° WNW
Cosmos 2154 Rocket 4.3 20:07:44 10° SSW 20:14:02 66° W 20:20:22 10° N
Cosmos 2341 Rocket 4.0 20:09:37 10° S 20:16:00 86° W 20:22:25 10° N
Cosmos 1455 Rocket 4.2 20:15:04 10° SSW 20:19:13 43° W 20:23:24 10° N
Cosmos 1763 Rocket 3.4 20:14:22 10° NNW 20:19:32 87° WSW 20:20:13 68° S
SL-24 R/B - RUBIN 2 4.5 20:14:48 10° SSW 20:21:11 62° ESE 20:21:33 61° E
Hubble Space Telescope 2.8 20:18:02 10° WSW 20:20:16 20° SSW 20:20:16 20° SSW
Cosmos 1503 Rocket 4.3 20:16:37 10° S 20:20:31 51° S 20:20:31 51° S
Cosmos 2297 Rocket 2.7 20:20:52 10° SW 20:26:24 57° WNW 20:31:59 10° NNE
Cosmos 2237 Rocket 2.6 20:21:50 10° NNW 20:27:26 60° WSW 20:29:46 34° S
Meteor 2-19 Rocket 4.3 20:21:45 10° S 20:27:52 85° E 20:34:04 10° N
Cosmos 332 Rocket 4.0 20:23:43 10° NNW 20:28:03 69° NW 20:28:03 69° NW
SEDSat Delta rocket 4.5 20:22:48 10° WSW 20:28:44 42° S 20:28:44 42° S
Meteor 2-8 Rocket 4.3 20:23:08 10° N 20:29:13 89° W 20:30:43 54° S
OAO 3 Rocket 3.8 20:24:22 10° WSW 20:28:19 52° SW 20:28:19 52° SW
Cosmos 1066 Rocket 4.3 20:29:29 10° NNW 20:35:02 69° W 20:36:02 56° SSW
Cosmos 2219 Rocket 4.0 20:31:37 10° NW 20:36:17 27° WSW 20:40:56 10° SSW
Cosmos 371 Rocket 4.2 20:32:28 10° NNW 20:35:46 43° NNW 20:35:46 43° NNW
Resurs 01 Rocket 4.3 20:42:29 10° SW 20:45:25 17° W 20:48:22 10° NW
Cosmos 2227 Rocket 4.0 20:42:39 10° WSW 20:47:31 29° WNW 20:52:26 10° N
ATLAS 3B CENTAUR R/B 4.5 20:30:28 10° WSW 20:57:19 52° S 20:59:53 48° SSE
SL-16 R/B 3.2 20:59:16 10° NNW 21:03:01 42° NW 21:03:01 42° NW
NOSS 3-1 (A) 4.3 20:57:40 10° NW 21:05:24 65° WSW 21:06:35 59° SSW
ATLAS 2AS CENTAUR R/B 3.8 21:03:35 10° NNW 21:09:17 39° NNE 21:09:17 39° NNE
Atlas Centaur 2 3.9 21:09:00 10° WSW 21:13:02 30° SW 21:13:02 30° SW
